[[{"header":{"parameterUnit":"m.s-1","parameterCategory":1,"la1":30.2991,"la2":30.254,"lo1":-89.0895,"lo2":-89.0444,"dy":0.0017,"dx":0.0017,"nx":28,"ny":28,"refTime":"2024-08-25T09:00:00:Z","depth":0,"parameterNumber":2,"parameterNumberName":"U-component_of_WINDS"},"data":[0,0,0,0,0,0,0,0,0,0,0,0,0,0,0,0,0,0,0,0,0,0,0,0,0,0,0,0,0,0,0,0,0,0,0,0,0,0,0,0,0,0,0,0,0,0,0,0,0,0,0,0,0,0,0,0,0,0,-1.8798,-1.8798,0,-1.8758,-1.8758,-1.8758,-1.8643,-1.864,-1.8638,-1.8635,-1.8599,-1.86,-1.8601,0,0,0,0,0,0,0,0,0,0,0,0,0,-1.8779,-1.878,-1.8798,-1.8798,-1.8797,-1.8759,-1.8758,-1.8757,-1.8643,-1.864,-1.8637,-1.8634,-1.8598,-1.86,-1.8601,0,0,0,0,0,0,0,0,0,0,0,0,0,-1.8768,-1.878,-1.8799,-1.8736,-1.873,-1.8759,-1.8758,-1.8757,-1.8644,-1.864,-1.8636,-1.8633,-1.8598,-1.86,-1.8602,-1.8689,0,0,-1.8608,-1.8609,0,0,0,0,0,0,0,0,-1.8769,-1.8769,-1.8745,-1.874,-1.8733,-1.8702,-1.8737,-1.8735,-1.8645,-1.8677,-1.8635,-1.8631,-1.8636,-1.8635,-1.8636,-1.8688,-1.8686,-1.8608,-1.8609,-1.861,-1.8611,0,0,0,0,0,0,0,-1.877,-1.877,-1.8783,-1.8745,-1.8738,-1.871,-1.8705,-1.8736,-1.8678,-1.8674,-1.8665,-1.8662,-1.8632,-1.8634,-1.8634,-1.8686,-1.8608,-1.861,-1.8611,-1.8612,-1.8808,-1.8811,0,0,0,0,0,0,-1.8779,-1.8771,-1.8784,-1.8781,-1.8742,-1.8714,-1.8707,-1.8716,-1.8677,-1.8668,-1.8665,-1.8657,-1.8632,-1.8632,-1.8632,-1.8733,-1.861,-1.8612,-1.8613,-1.8804,-1.8809,-1.8813,0,0,0,0,0,0,-1.8779,-1.8781,-1.8786,-1.8774,-1.8773,-1.8718,-1.8728,-1.8717,-1.8718,-1.8671,-1.866,-1.8677,-1.8629,-1.8629,-1.8676,-1.873,-1.8613,-1.8615,-1.8799,-1.8805,-1.8811,-1.8935,0,0,0,0,0,0,-1.8779,-1.8782,-1.8814,-1.8776,-1.8774,-1.8829,-1.8732,-1.8719,-1.8722,-1.871,-1.868,-1.8671,-1.8626,-1.8673,-1.8678,-1.8731,-1.8616,-1.8794,-1.8802,-1.8809,-1.8926,-1.8945,-1.8961,0,0,0,0,0,-1.8779,-1.8852,-1.8816,-1.8819,-1.8813,-1.8833,-1.8832,-1.8778,-1.8727,-1.8759,-1.8728,-1.8672,-1.8723,-1.8679,-1.8683,-1.8738,-1.879,-1.88,-1.8808,-1.8918,-1.8941,-1.896,0,0,0,0,0,0,-1.89,-1.8846,-1.8806,-1.8868,-1.8856,-1.8813,-1.8853,-1.8803,-1.8806,-1.8796,-1.8729,-1.8723,-1.878,-1.8763,-1.8715,-1.882,-1.8747,-1.8758,-1.883,-1.8851,-1.8868,-1.8871,-1.8618,0,0,0,0,0,-1.8933,-1.8953,-1.8905,-1.8965,-1.896,-1.8908,-1.8915,-1.8874,-1.8859,-1.8853,-1.8826,-1.8815,-1.8828,-1.8838,-1.8848,-1.8922,-1.8915,-1.8962,-1.8979,-1.8993,-1.9004,-1.9042,-1.9063,-1.8842,-1.8842,-1.8842,0,0,-1.9004,-1.8977,-1.8993,-1.8988,-1.8974,-1.8997,-1.8904,-1.8932,-1.8949,-1.8858,-1.89,-1.888,-1.8862,-1.8923,-1.8949,-1.8911,-1.9063,-1.9005,-1.9017,-1.9019,-1.9054,-1.9075,-1.9093,-1.8848,-1.8847,-1.8846,0,0,-1.9144,-1.9125,-1.9172,-1.9159,-1.9138,-1.9102,-1.9114,-1.9078,-1.9061,-1.9102,-1.9034,-1.9053,-1.9077,-1.9068,-1.9066,-1.9202,-1.9151,-1.9207,-1.9298,-1.9337,-1.9354,-1.9369,-1.9418,-1.9437,-1.9217,-1.9217,-1.9217,0,-1.9235,-1.9265,-1.9204,-1.9236,-1.9236,-1.9153,-1.9201,-1.9192,-1.9176,-1.9178,-1.9136,-1.9164,-1.9146,-1.9204,-1.9237,-1.9239,-1.9251,-1.9211,-1.9356,-1.9371,-1.9384,-1.943,-1.9449,-1.9224,-1.9223,-1.9223,-1.9222,0,-1.9378,-1.94,-1.9442,-1.9426,-1.9431,-1.9471,-1.9417,-1.9429,-1.9388,-1.9357,-1.94,-1.9376,-1.9379,-1.9389,-1.935,-1.9442,-1.9419,-1.9368,-1.9293,-1.9413,-1.9456,-1.9473,-1.9234,-1.9232,-1.923,-1.9228,0,0,-1.9595,-1.9544,-1.956,-1.9552,-1.9522,-1.9539,-1.9575,-1.9577,-1.9589,-1.958,-1.961,-1.9632,-1.9584,-1.9582,-1.9541,-1.9574,-1.9684,-1.9518,-1.9517,-1.9551,-1.9785,-1.9826,-1.9847,-1.9649,-1.9652,-1.9655,-1.9787,0,-1.9728,-1.9787,-1.9732,-1.9802,-1.9822,-1.9743,-1.9775,-1.9761,-1.9733,-1.9747,-1.9716,-1.9733,-1.9667,-1.9665,-1.9695,-1.9665,-1.9731,-1.9654,-1.9678,-1.968,-1.9686,-1.9869,-1.9912,-2.0038,-1.9803,-1.9806,-1.9808,0,-1.9892,-1.9889,-1.9961,-1.9925,-1.9932,-1.9962,-1.9959,-1.9972,-1.9955,-1.9932,-1.993,-1.9878,-1.9913,-1.9839,-1.9886,-1.9836,-1.9842,-1.9829,-1.9832,-1.9834,-1.9753,-1.9877,-2.0077,-2.0097,-1.9834,-1.9831,-1.983,0,-2.0044,-2.0059,-2.0103,-2.0098,-2.0058,-2.0081,-2.0065,-2.0043,-2.0048,-2.0046,-2.0048,-2.0051,-2.0052,-2.0056,-2.0007,-1.9958,-2.0061,-1.9983,-2.0045,-2.0046,-2.0072,-2.0071,-2.0277,-2.0074,-2.0074,-2.0073,-2.0073,0,-2.02,-2.0247,-2.0171,-2.0199,-2.0249,-2.0186,-2.0239,-2.0215,-2.0196,-2.0219,-2.015,-2.0173,-2.0106,-2.0123,-2.0085,-2.013,-2.0131,-2.0115,-2.0105,-2.0122,-2.0125,-2.0127,-2.0117,-2.0078,-2.0077,-2.0076,-2.0075,0,-2.038,-2.033,-2.0374,-2.0331,-2.0321,-2.0361,-2.0325,-2.0349,-2.0316,-2.0346,-2.0349,-2.0298,-2.0313,-2.0264,-2.0272,-2.0247,-2.0314,-2.0288,-2.032,-2.0313,-2.0377,-2.0373,-2.0593,-2.0619,-2.0399,-2.0401,-2.0402,0,-2.0483,-2.0517,-2.0477,-2.0487,-2.0474,-2.0491,-2.0494,-2.0433,-2.044,-2.0422,-2.0449,-2.0458,-2.0463,-2.0491,-2.0456,-2.0462,-2.0437,-2.0514,-2.0438,-2.0454,-2.044,-2.0439,-2.0442,-2.053,-2.0533,-2.0535,-2.0537,0,-2.0672,-2.0645,-2.0652,-2.0651,-2.0657,-2.0653,-2.0645,-2.0657,-2.0591,-2.0603,-2.0617,-2.062,-2.0628,-2.0639,-2.0637,-2.0622,-2.057,-2.0561,-2.0576,-2.0595,-2.0612,-2.0605,-2.0364,-2.0557,-2.0555,-2.0553,-2.0552,-2.0551,-2.0817,-2.0843,-2.082,-2.083,-2.0817,-2.0811,-2.0832,-2.08,-2.081,-2.0811,-2.0774,-2.0796,-2.0777,-2.0769,-2.0759,-2.0776,-2.0741,-2.0762,-2.0768,-2.0774,-2.0786,-2.0608,-2.0775,-2.0775,-2.0774,-2.0773,-2.0773,0,-2.1003,-2.0983,-2.0993,-2.0983,-2.0992,-2.0939,-2.0927,-2.0938,-2.0958,-2.0943,-2.0949,-2.0965,-2.0975,-2.094,-2.0945,-2.0965,-2.0942,-2.0969,-2.0968,-2.0965,-2.0816,-2.0804,-2.0988,-2.0988,-2.0988,-2.0988,-2.0988,-2.0988,-2.1101,-2.1144,-2.1114,-2.115,-2.113,-2.1149,-2.1147,-2.1142,-2.113,-2.1151,-2.1158,-2.1134,-2.1112,-2.1115,-2.1122,-2.1111,-2.1117,-2.1153,-2.1135,-2.0997,-2.0976,-2.0956,-2.0944,-2.1155,-2.1155,-2.1282,-2.1284,-2.1284]},{"header":{"parameterUnit":"m.s-1","parameterCategory":1,"la1":30.2991,"la2":30.254,"lo1":-89.0895,"lo2":-89.0444,"dy":0.0017,"dx":0.0017,"nx":28,"ny":28,"refTime":"2024-08-25T09:00:00:Z","depth":0,"parameterNumber":3,"parameterNumberName":"V-component_of_WINDS"},"data":[0,0,0,0,0,0,0,0,0,0,0,0,0,0,0,0,0,0,0,0,0,0,0,0,0,0,0,0,0,0,0,0,0,0,0,0,0,0,0,0,0,0,0,0,0,0,0,0,0,0,0,0,0,0,0,0,0,0,0.4619,0.4618,0,0.4541,0.454,0.4539,0.4476,0.4475,0.4474,0.4474,0.4394,0.4393,0.4391,0,0,0,0,0,0,0,0,0,0,0,0,0,0.4712,0.4711,0.4619,0.4618,0.4617,0.4541,0.454,0.4539,0.4476,0.4475,0.4474,0.4473,0.4395,0.4393,0.4391,0,0,0,0,0,0,0,0,0,0,0,0,0,0.4657,0.471,0.4619,0.4576,0.4571,0.4542,0.454,0.4539,0.4476,0.4475,0.4474,0.4473,0.4395,0.4393,0.4391,0.4397,0,0,0.4384,0.4383,0,0,0,0,0,0,0,0,0.466,0.4653,0.4583,0.4579,0.4574,0.4517,0.4544,0.4491,0.4476,0.4512,0.4474,0.4473,0.4436,0.443,0.4418,0.4394,0.439,0.4384,0.4383,0.4382,0.4381,0,0,0,0,0,0,0,0.4664,0.4656,0.4588,0.4582,0.4577,0.4561,0.4552,0.4534,0.4481,0.4509,0.4504,0.4496,0.4433,0.442,0.4416,0.4389,0.4384,0.4382,0.4381,0.438,0.4366,0.4367,0,0,0,0,0,0,0.4674,0.466,0.4591,0.4586,0.4615,0.456,0.455,0.4536,0.4481,0.4471,0.4497,0.4493,0.4425,0.4418,0.4413,0.4417,0.4382,0.438,0.4378,0.4365,0.4367,0.4368,0,0,0,0,0,0,0.4677,0.4669,0.4594,0.4622,0.4611,0.4559,0.4545,0.4535,0.4522,0.4471,0.4462,0.4493,0.4424,0.4416,0.4402,0.4413,0.4379,0.4377,0.4364,0.4366,0.4367,0.4425,0,0,0,0,0,0,0.468,0.467,0.4672,0.4622,0.461,0.4584,0.4545,0.4535,0.4519,0.4513,0.4466,0.4457,0.4422,0.4405,0.44,0.4409,0.4375,0.4363,0.4365,0.4367,0.4422,0.4428,0.4434,0,0,0,0,0,0.4683,0.4691,0.4672,0.4664,0.4611,0.4585,0.4578,0.4538,0.452,0.4521,0.4489,0.4458,0.4413,0.4404,0.4397,0.4407,0.4362,0.4364,0.4366,0.4419,0.4427,0.4434,0,0,0,0,0,0,0.4744,0.4684,0.4662,0.4655,0.4625,0.4574,0.4575,0.4547,0.4523,0.4519,0.447,0.4459,0.4451,0.4427,0.4419,0.441,0.4383,0.4384,0.4426,0.4433,0.4439,0.4445,0.4373,0,0,0,0,0,0.4756,0.474,0.4689,0.4687,0.4673,0.4627,0.4614,0.4586,0.4554,0.4541,0.4507,0.4477,0.4456,0.4443,0.4421,0.4418,0.4407,0.4421,0.4427,0.4432,0.4434,0.4431,0.4437,0.4375,0.4375,0.4375,0,0,0.4782,0.4747,0.474,0.4698,0.4672,0.4657,0.4617,0.4602,0.4591,0.4539,0.4524,0.4498,0.4461,0.4453,0.4448,0.4433,0.4448,0.4435,0.4439,0.4438,0.4434,0.444,0.4445,0.4376,0.4376,0.4376,0,0,0.4821,0.4793,0.4789,0.4763,0.4725,0.4694,0.4693,0.4646,0.4627,0.4611,0.4571,0.4557,0.4521,0.4497,0.448,0.451,0.4481,0.4504,0.4535,0.4533,0.4538,0.4542,0.4554,0.4558,0.4505,0.4505,0.4505,0,0.4858,0.4833,0.479,0.4778,0.4761,0.4713,0.4708,0.4686,0.4642,0.4631,0.4615,0.457,0.4542,0.4527,0.4535,0.4522,0.452,0.4509,0.4541,0.4544,0.4548,0.4558,0.4562,0.4508,0.4508,0.4508,0.4507,0,0.4881,0.4864,0.4865,0.4824,0.4807,0.4799,0.4754,0.4742,0.4715,0.4686,0.4671,0.4635,0.4605,0.4599,0.4573,0.4581,0.4574,0.455,0.4522,0.4557,0.4566,0.457,0.4513,0.4512,0.4511,0.451,0,0,0.4957,0.4891,0.4893,0.4874,0.4827,0.4814,0.4803,0.4774,0.4765,0.4736,0.4726,0.4697,0.4675,0.4656,0.4626,0.4624,0.4651,0.46,0.4599,0.4612,0.4659,0.4678,0.4683,0.4631,0.4632,0.4632,0.4663,0,0.4989,0.4967,0.4928,0.4919,0.4904,0.4858,0.4849,0.482,0.4792,0.4775,0.4744,0.4725,0.4697,0.4685,0.4681,0.4649,0.466,0.4646,0.4623,0.4622,0.4634,0.4688,0.4707,0.4738,0.4666,0.4666,0.4667,0,0.5024,0.4998,0.4988,0.4943,0.4935,0.4927,0.4897,0.4881,0.4847,0.4827,0.4806,0.4773,0.476,0.4734,0.4716,0.4707,0.4695,0.4678,0.4678,0.4675,0.4647,0.4687,0.4746,0.4751,0.4671,0.4671,0.4671,0,0.5081,0.5044,0.5033,0.5018,0.4965,0.4961,0.4938,0.4903,0.4888,0.4862,0.4851,0.4824,0.4809,0.4789,0.475,0.4735,0.4736,0.4707,0.4719,0.4721,0.4722,0.4723,0.4781,0.4713,0.4713,0.4713,0.4713,0,0.5122,0.5118,0.5058,0.5051,0.5045,0.5,0.4995,0.4969,0.4938,0.4926,0.4884,0.4873,0.4822,0.4805,0.4775,0.4764,0.4758,0.4742,0.4734,0.4746,0.4748,0.4738,0.4735,0.4714,0.4714,0.4714,0.4714,0,0.5185,0.5145,0.513,0.5081,0.5069,0.5067,0.5024,0.5016,0.4986,0.4971,0.4965,0.4918,0.4896,0.4855,0.4822,0.4801,0.4798,0.4783,0.481,0.4805,0.482,0.482,0.4875,0.488,0.4809,0.4809,0.481,0,0.5214,0.521,0.516,0.5149,0.5128,0.5111,0.5095,0.505,0.5036,0.4997,0.4994,0.4969,0.4946,0.4914,0.4877,0.4851,0.4837,0.4858,0.4833,0.4845,0.4838,0.4839,0.4839,0.4864,0.4865,0.4866,0.4866,0,0.527,0.5251,0.523,0.5202,0.5185,0.516,0.5134,0.5127,0.5076,0.5062,0.504,0.5023,0.4989,0.4965,0.4934,0.4911,0.4881,0.4874,0.4876,0.4889,0.4905,0.4897,0.4826,0.4873,0.4873,0.4872,0.4872,0.4871,0.5318,0.5312,0.5276,0.5255,0.523,0.5207,0.5197,0.5166,0.5146,0.5115,0.5089,0.5069,0.5035,0.4991,0.4969,0.4953,0.4938,0.4941,0.4942,0.4943,0.4949,0.4907,0.4947,0.4947,0.4947,0.4946,0.4946,0,0.5373,0.5347,0.5328,0.5292,0.5275,0.5248,0.5217,0.5205,0.5188,0.5158,0.5137,0.5112,0.5088,0.5049,0.5023,0.5017,0.5003,0.5012,0.5012,0.5008,0.4963,0.4964,0.5024,0.5024,0.5024,0.5024,0.5024,0.5024,0.5399,0.5388,0.5364,0.5341,0.5315,0.5295,0.528,0.5259,0.5235,0.5208,0.5189,0.5163,0.513,0.5101,0.5078,0.5067,0.506,0.5074,0.5059,0.5018,0.5011,0.5004,0.5005,0.5073,0.5073,0.5105,0.5106,0.5106]}]]